Погода в Бакчаре

Погода в Бакчаре : погода сейчас, прогноз погоды и архив. Всё, что Вы хотите узнать о погоде в Бакчаре!

Хотите узнать прогноз погоды в Бакчаре? Тогда Вам сюда: Погода в Бакчаре

Поиск расширенной информации на нашем сайте:

Другие новости

Новости СМИ2

Главная страница сайта

Новости сайта

03.07.2017

Напоминаем, что на нашем специализированном сайте Метеоцентр.Азия вы можете получить высокодетализированные автоматические прогнозы погоды по пунктам России, СНГ и мира в авиационном формате (включающие направление и скорость ветра, видимость, явления погоды, количество и форму облачности, нижнюю и верхнюю границу облачности).

Рекомендуем: лучшие русские мелодрамы смотреть

Погода в Бакчаре - сегодня

Время (UTC), дата Ветер
(°,м/с) 
Видим.   Явления Облачность Т
(°С)
Тd
(°С)
f(%) Тe
(°С)
Pmin
(гПа)
dP
(гПа)
Po
(мм)
O2
(г/м3)
Тmin Tmax R s Состояние
почвы
09 20.08.17 240 (ЮЗ) 2{10}  20000 м  слаб. ливневой дождь  10/8 600 м кучево-дожд., средняя, верхняя 
[Cb cap|Ac trans|Ci fib]
+14.6 +9.7 72 +16  1019.3  -0.5  755  287           
12 20.08.17 210 (ЮЗ) 20000 м  в посл. час ливневой дождь  10/6 600 м кучево-дожд., средняя, верхняя 
[Cb cap|Ac trans|Cs]
+17.3 +9.3 59 +18  1018.8  -0.4  754  284    +19.5  0.0     
15 20.08.17 220 (ЮЗ) 20000 м    8/5 600 м средняя 
[Cu Sc|Ac cuf]
+12.6 +10.3 86 +15  1019.7  0.7  755  289           
18 20.08.17 тихо ()   20000 м    6/4 600 м средняя 
[Sc|Ac trans]
+10.3 +9.4 94 +11  1019.8  755  291           
21 20.08.17 270 (З) 20000 м    4/0 средняя 
[Ac trans]
+7.6 +6.8 95 +9  1019.9  755  295           
00 21.08.17 тихо ()   4000 м  дымка  3/0 средняя 
[Ac trans]
+5.6 +5.1 97 +6  1020.8  0.7  755  297  +4.7        влажная 
03 21.08.17 010 (С) 20000 м  {туман}  10/8 600 м кучево-дожд., верхняя 
[Cb cap|Ci sp]
+12.3 +11.5 95 +17  1021.6  1.2  756  289           
06 21.08.17 300 (СЗ) 20000 м  {туман}  10/4 600 м средняя, верхняя 
[Sc diur, vesp|Ac As|Ci sp]
+16.7 +8 56 +17  1021.7  0.3  756  286           
09 21.08.17 330 (СЗ) 20000 м    9/5 600 м средняя 
[Sc|Ac As]
+19.3 +6.9 44 +20  1021.4  -0.2  756  284           
12 21.08.17 300 (СЗ) 20000 м    10/4 600 м средняя, верхняя 
[Sc|Ac As|Ci sp]
+18.1 +8.6 54 +20  1021  -0.4  756  284    +19.9       
15 21.08.17 150 (ЮВ) 20000 м    10/8 600 м кучево-дожд., средняя 
[Cb cap|Ac trans]
+12.6 +11.3 92 +14               
18 21.08.17 150 (ЮВ) 20000 м  {ливн. осадки}  10/8 600 м кучево-дожд., средняя 
[Cb cap|Ac trans]
+11.9 +10.8 93 +15  1021.1  -0.5  756  290           
21 21.08.17 180 (Ю) 20000 м    10/5 600 м кучево-дожд., средняя, верхняя 
[Cb cap|Ac trans|Ci fib]
+12 +9.2 83 +12  1020.7  -0.4  756  290           
00 22.08.17 190 (Ю) 20000 м    10/8 600 м верхняя 
[Sc|Ci sp]
+12.6 +9.5 81 +13  1020.1  -0.6  755  289  +10.8    0.0    влажная 
03 22.08.17 220 (ЮЗ) 20000 м    10/8 600 м средняя, верхняя 
[Sc|Ac trans|Ci fib]
+17.7 +11.9 69 +23  1018.8  -1  754  283           
06 22.08.17 210 (ЮЗ) 20000 м    10/5 600 м средняя, верхняя 
[Sc|Ac trans|Cs]
+21.4 +13.8 62 +28  1017.3  -1.4  753  279           
09 22.08.17 240 (ЮЗ) 20000 м  в посл. час ливневой дождь  10/8 600 м кучево-дожд., средняя 
[Cb cap|Ac trans]
+20.9 +13.9 64 +28  1016.6  -0.6  753  279           
12 22.08.17 230 (ЮЗ) 20000 м  {ливн. осадки}  8/4 600 м кучево-дожд., средняя, верхняя 
[Cb cap|Ac cuf|Ci fib]
+19.2 +16.4 84 +31  1015.3  -1.4  752  279    +22.4     
15 22.08.17 310 (СЗ) 20000 м  {ливн. осадки}  10/8 600 м кучево-дожд., средняя 
[Cb cap|Ac trans]
+16.4 +15.4 94 +26  1017.2  1.8  753  283           
18 22.08.17 290 (З) 4000 м  дымка{ливн. осадки}  4/3 600 м средняя 
[Sc|Ac trans]
+12.7 +11.9 95 +18  1019  1.5  754  288           
21 22.08.17 тихо ()   2000 м  дымка  ясно 
+11 +10.3 95 +12  1019.9  0.9  755  291           
00 23.08.17 300 (СЗ) 20000 м    8/4 600 м верхняя 
[Sc|Ci sp]
+11 +10.3 95 +13  1021.1  1.1  756  291  +7.7      мокрая 
03 23.08.17 300 (СЗ) 20000 м    8/3 600 м верхняя 
[Sc|Cs]
+16 +13.1 83 +22  1022.8  757  286           
06 23.08.17 310 (СЗ) 20000 м    8/3 1000 м средняя 
[Cu hum|Ac trans]
+20.5 +10.9 54 +23  1023.5  0.9  758  282           
09 23.08.17 300 (СЗ) 20000 м    10/6 600 м средняя 
[Cu hum|Ac trans]
+22.6 +9.3 43 +23  1023.7  0.2  758  281           
Время (UTC), дата Ветер
(°,м/с) 
Видим.   Явления Облачность Т
(°С)
Тd
(°С)
f(%) Тe
(°С)
Pmin
(гПа)
dP
(гПа)
Po
(мм)
O2
(г/м3)
Тmin Tmax R s Состояние
почвы

Для получения пояснительной информации подведите курсор к названию столбца.

ПОГОДА в Бакчаре - архив

Всё, что Вы хотите узнать о погоде в Бакчаре - удобно и подробно!

Выберите нужную дату (начиная с 1 января 2015* года) и нажмите кнопку "Найти".
Будут отображены архивные сводки погоды по пункту Бакчар, начиная с указанной даты.


Отображать данные в формате CSV (для использования в таблицах Excel)


Внимание! Наш архив погоды предназначен исключительно для личного некоммерческого использования в познавательных целях. Если Вам необходимы официальные справки о состоянии погоды (для производственных, юридических, коммерческих и т.п. целей), обращайтесь в органы Росгидромета.

*Примечание: данная дата относится к архиву по метеостанциям СССР (Россия, СНГ, Балтия).
Архив по метеостанциям Зарубежной Европы и Азии (кроме Китая) хранится 10 дней, по другим регионам земного шара (Китай, Африка, Америка, Австралия, Океания) - 1 день.

Бакчар - район местоположения метеостанции


Название, широта, долгота, высота метеостанции:
Бакчар 57.1°ш. 81.9°д. 110 м над ур. моря [Российская Федерация]

Дополнительная информация

В oтличие oт бoльшинства пoгoдных сайтoв мы публикуем пoдрoбную метеoинфoрмацию в детальнoм прoфессиoнальнoм фoрмате.

Характеристики температуры и влажнoсти вoздуха измеряются на высoте 2 м в тени вдали oт зданий и деревьев.
Скoрoсть ветра измеряется на высoте 10 м (на урoвне рoста челoвека скoрoсть ветра ниже в 1.5-2 раза). Если метеoстанция нахoдится в гoрoде или в лесу, тo скoрoсть ветра занижена на 2-4 м/с пo сравнению с oткрытым местoм. Скoрoсть ветра над акватoриями крупных рек и oзёр, а также на вершинах хoлмoв на 2-5 м/с выше, чем в oбычных услoвиях.
Атмoсфернoе давление в разных тoчках местнoсти мoжет значительнo oтличаться oт давления на метеoстанции, в зависимoсти oт услoвий рельефа (при пoдъёме на 10 м давление пoнижается примернo на 1 мм рт.ст.).